Location: Unspecified
(0.0000°N, 0.0000°E)
Time: 11:25:30
(UTC+00:00)

S-56A Canister/Altair - Pass Details

Date: 04 December 2023
Orbit: 640 x 2488 km, 38.9° (Epoch: 24 February)

Event Time Altitude Azimuth Distance (km) Brightness Sun altitude
Rises 18:16:47 0° 335° (NNW) 3,806 11.1 -6.1°
Reaches altitude 10° 18:19:29 10° 346° (NNW) 3,080 10.5 -6.8°
Maximum altitude 18:26:19 32° 47° (NE) 2,369 9.5 -8.3°
Drops below altitude 10° 18:35:53 10° 104° (ESE) 4,376 10.9 -10.6°
Sets 18:40:30 0° 113° (ESE) 5,655 11.5 -11.6°
